Torna al catalogo

KUIPER-00186

AttivoComunicazioniLEO
NORAD 67140·PAYLOAD·🇺🇸 United States

Lanciato Dec 15, 2025 da Cape Canaveral Space Force Station

Loading…

Prossimi Passaggi (prossime 24 ore)

TLE

AggiornatoSource: CelesTrak SupGP

Epoca: Sep 15, 2026, 02:40 UTC

1 67140C 25301H   26258.11157407 -.00041541  00000+0 -54363-2 0  2585
2 67140  51.9023 320.5280 0000335  96.1540 143.1388 14.79984486    15

Traccia KUIPER-00186 in tempo reale con AllMySat

Download on the App Store